Location: *
(46.1006°N, 1.8394°E)
Time: 03:39:41
(UTC+00:00)

Cosmos 1023 Rocket - Pass Details

Date: 20 September 2019
Orbit: 737 x 772 km, 74.1° (Epoch: 22 October)

Event Time Altitude Azimuth Distance (km) Brightness Sun altitude
Rises 19:44:38 0° 337° (NNW) 3,213 8.4 -19.3°
Reaches altitude 10° 19:47:01 10° 336° (NNW) 2,279 7.6 -19.7°
Maximum altitude 19:52:10 79° 251° (WSW) 764 4.5 -20.5°
Enters shadow 19:54:46 30° 168° (SSE) 1,325 5.4 -20.9°
